Location: Enborne
(51.3833°N, 1.3667°W)
Time: 14:29:39
(UTC+00:00)

Cosmos 1844 Rocket - Pass Details

Date: 26 January 2021
Orbit: 826 x 843 km, 71.0° (Epoch: 05 March)

Event Time Altitude Azimuth Distance (km) Brightness Sun altitude
Rises 19:54:09 0° 261° (W) 3,396 6.9 -29.3°
Reaches altitude 10° 19:57:15 10° 278° (W) 2,462 6.0 -29.7°
Maximum altitude 20:01:25 21° 325° (NW) 1,826 4.8 -30.4°
Enters shadow 20:04:23 14° 3° (N) 2,172 4.9 -30.8°
